Iridium 98 - Orbit

View from above orbital plane
View from above orbital plane
View from above satellite
View from above satellite

Ground track
Ground track

The orbit data is extracted from the following two-line orbital elements,

1 27451U 02031B   13137.44360047  .00000479  00000-0  13745-3 0  8046
2 27451 086.4431 285.8717 0004677 079.0075 337.6990 14.42944596577090
Epoch (UTC): 17 May 2013 10:38:47
Eccentricity: 0.0004677
inclination: 86.4431°
perigee height: 745 km
apogee height: 752 km
right ascension of ascending node: 285.8717°
argument of perigee: 79.0075°
revolutions per day: 14.42944596
mean anomaly at epoch: 337.6990°
orbit number at epoch: 57709

The dashed part of the orbit path shows where the satellite is in the earth's shadow,  

Developed and maintained by Chris Peat, Heavens-Above GmbH. Please read the updated FAQ before sending e-mail. Imprint. DLR